Location: *
(43.9905°S, 176.4941°W)
Time: 18:06:50
(UTC+00:00)

Cosmos 1544 - Pass Details

Date: 08 December 2019
Orbit: 474 x 491 km, 82.5° (Epoch: 25 January)

Event Time Altitude Azimuth Distance (km) Brightness Sun altitude
Rises 08:08:19 0° 356° (N) 2,554 6.4 -7.9°
Reaches altitude 10° 08:10:24 10° 357° (N) 1,685 5.4 -8.2°
Maximum altitude 08:14:05 80° 83° (E) 512 3.1 -8.7°
Drops below altitude 10° 08:17:51 10° 169° (S) 1,721 6.3 -9.1°
Sets 08:20:00 0° 170° (S) 2,614 7.3 -9.4°
